Weather History for Rogers, AR

Change the Weather History Date:

Sunday, October 16, 2011

  Actual Average Record
Temperature  
Mean Temperature 70 °F -  
Max Temperature 84 °F 67 °F 84 °F (2011)
Min Temperature 57 °F 46 °F 32 °F (2002)
Cooling Degree Days 6    
Growing Degree Days 20 (Base 50)    
Moisture  
Dew Point 50 °F    
Average Humidity 50    
Maximum Humidity 68    
Minimum Humidity 35    
Precipitation  
Precipitation 0.00 in - - ()
Sea Level Pressure  
Sea Level Pressure 29.95 in    
Wind  
Wind Speed 9 mph (SSW)    
Max Wind Speed 20 mph    
Max Gust Speed 30 mph    
Visibility 10 miles    
Events      
Averages and records for this station are not official NWS values.
T = Trace of Precipitation, MM = Missing Value Source: NWS Daily Summary

Daily Weather History Graph

Daily Weather History Graph

Search for Another Location

Airport:

Trip Planner

Search our weather history database for the weather conditions in past years. The results will help you decide how hot, cold, wet, or windy it might be!

Date:

Astronomy

Oct. 16, 2011 Rise Set
Actual Time 7:24 AM CDT 6:39 PM CDT
Civil Twilight 6:58 AM CDT 7:05 PM CDT
Nautical Twilight 6:28 AM CDT 7:35 PM CDT
Astronomical Twilight 5:58 AM CDT 8:04 PM CDT
Moon 9:33 PM CDT (10/16) 11:34 AM CDT (10/16)
Length of Visible Light 12h 06m
Length of Day
11h 15m
Waning Gibbous, 82% of the Moon is Illuminated
Oct 16
Waning Gibbous
Oct 19
Last Quarter
Oct 26
New
Nov 2
First Quarter
Nov 10
Full

Hourly Weather History & Observations

Time (CDT) Temp. Heat Index Dew Point Humidity Pressure Visibility Wind Dir Wind Speed Gust Speed Precip Events Conditions
12:57 AM 62.1 °F - 44.1 °F 52% 30.00 in 10.0 mi South 6.9 mph - N/A   Clear
1:57 AM 63.0 °F - 44.1 °F 50% 30.00 in 10.0 mi South 6.9 mph - N/A   Clear
2:57 AM 57.0 °F - 45.0 °F 64% 30.00 in 10.0 mi Calm Calm - N/A   Clear
3:57 AM 60.1 °F - 44.1 °F 55% 29.99 in 10.0 mi South 4.6 mph - N/A   Clear
4:57 AM 59.0 °F - 44.1 °F 58% 29.98 in 10.0 mi South 5.8 mph - N/A   Clear
5:57 AM 60.1 °F - 45.0 °F 57% 29.98 in 10.0 mi South 9.2 mph - N/A   Clear
6:57 AM 63.0 °F - 44.1 °F 50% 29.98 in 10.0 mi South 12.7 mph - N/A   Clear
7:57 AM 64.9 °F - 45.0 °F 48% 29.98 in 10.0 mi SSW 10.4 mph - N/A   Clear
9:57 AM 73.0 °F - 50.0 °F 44% 29.99 in 10.0 mi SW 13.8 mph - N/A   Clear
10:57 AM 75.0 °F - 50.0 °F 41% 29.99 in 10.0 mi SW 19.6 mph 29.9 mph N/A   Clear
11:57 AM 78.1 °F - 52.0 °F 40% 29.98 in 10.0 mi SW 18.4 mph 26.5 mph N/A   Clear
12:57 PM 81.0 °F 80.4 °F 53.1 °F 38% 29.95 in 10.0 mi SW 16.1 mph 24.2 mph N/A   Clear
1:57 PM 82.9 °F 81.9 °F 54.0 °F 37% 29.91 in 10.0 mi SSW 17.3 mph 26.5 mph N/A   Clear
2:57 PM 82.9 °F 81.9 °F 54.0 °F 37% 29.90 in 10.0 mi SW 19.6 mph 25.3 mph N/A   Clear
3:57 PM 84.0 °F 82.6 °F 54.0 °F 35% 29.89 in 10.0 mi SSW 17.3 mph 23.0 mph N/A   Clear
4:57 PM 84.0 °F 82.6 °F 54.0 °F 35% 29.88 in 10.0 mi SW 13.8 mph 20.7 mph N/A   Clear
6:57 PM 78.1 °F - 55.0 °F 45% 29.89 in 10.0 mi SSW 6.9 mph - N/A   Clear
8:57 PM 70.0 °F - 55.9 °F 61% 29.91 in 10.0 mi South 8.1 mph - N/A   Clear
9:57 PM 68.0 °F - 55.0 °F 63% 29.92 in 10.0 mi North 6.9 mph - N/A   Clear
10:57 PM 64.9 °F - 54.0 °F 68% 29.94 in 10.0 mi North 6.9 mph - N/A   Clear
11:57 PM 61.0 °F - 50.0 °F 67% 29.96 in 10.0 mi Variable 5.8 mph - N/A   Clear